owner,sensor,date,latitude,longitude,vertical_datum,sea_water_practical_salinity,qcFlag 
DISL,ioos:station:DISL:MHPA:1,2015-06-01T00:00:00Z,30.6671,-87.9365,1.091,0.1,1111122 
DISL,ioos:station:DISL:MHPA:1,2015-06-01T00:30:00Z,30.6671,-87.9365,1.067,0.11,1111122 
DISL,ioos:station:DISL:MHPA:1,2015-06-01T01:00:00Z,30.6671,-87.9365,1.05,0.11,1111122 
DISL,ioos:station:DISL:MHPA:1,2015-06-01T01:30:00Z,30.6671,-87.9365,1.033,0.11,1111122 
DISL,ioos:station:DISL:MHPA:1,2015-06-01T02:00:00Z,30.6671,-87.9365,1.007,0.11,1111122 
DISL,ioos:station:DISL:MHPA:1,2015-06-01T02:30:00Z,30.6671,-87.9365,0.994,0.1,1111122 
DISL,ioos:station:DISL:MHPA:1,2015-06-01T03:00:00Z,30.6671,-87.9365,0.971,0.1,1111122 
DISL,ioos:station:DISL:MHPA:1,2015-06-01T03:30:00Z,30.6671,-87.9365,0.957,0.09,1111122 
DISL,ioos:station:DISL:MHPA:1,2015-06-01T04:00:00Z,30.6671,-87.9365,0.94,0.1,1111122 
DISL,ioos:station:DISL:MHPA:1,2015-06-01T04:30:00Z,30.6671,-87.9365,0.931,0.1,1111122 
DISL,ioos:station:DISL:MHPA:1,2015-06-01T05:00:00Z,30.6671,-87.9365,0.935,0.1,1111122 
DISL,ioos:station:DISL:MHPA:1,2015-06-01T05:30:00Z,30.6671,-87.9365,0.943,0.1,1111122 
DISL,ioos:station:DISL:MHPA:1,2015-06-01T06:00:00Z,30.6671,-87.9365,0.962,0.1,1111122 
DISL,ioos:station:DISL:MHPA:1,2015-06-01T06:30:00Z,30.6671,-87.9365,0.985,0.1,1111122 
DISL,ioos:station:DISL:MHPA:1,2015-06-01T07:00:00Z,30.6671,-87.9365,1.014,0.1,1111122 
DISL,ioos:station:DISL:MHPA:1,2015-06-01T07:30:00Z,30.6671,-87.9365,1.058,0.1,1111122 
DISL,ioos:station:DISL:MHPA:1,2015-06-01T08:00:00Z,30.6671,-87.9365,1.097,0.1,1111122 
DISL,ioos:station:DISL:MHPA:1,2015-06-01T08:30:00Z,30.6671,-87.9365,1.113,0.1,1111122 
DISL,ioos:station:DISL:MHPA:1,2015-06-01T09:00:00Z,30.6671,-87.9365,1.136,0.1,1111122 
DISL,ioos:station:DISL:MHPA:1,2015-06-01T09:30:00Z,30.6671,-87.9365,1.162,0.1,1111122 
DISL,ioos:station:DISL:MHPA:1,2015-06-01T10:00:00Z,30.6671,-87.9365,1.172,0.1,1111122 
DISL,ioos:station:DISL:MHPA:1,2015-06-01T10:30:00Z,30.6671,-87.9365,1.193,0.1,1111122 
DISL,ioos:station:DISL:MHPA:1,2015-06-01T11:00:00Z,30.6671,-87.9365,1.221,0.1,1111122 
DISL,ioos:station:DISL:MHPA:1,2015-06-01T11:30:00Z,30.6671,-87.9365,1.253,0.1,1111122 
DISL,ioos:station:DISL:MHPA:1,2015-06-01T12:00:00Z,30.6671,-87.9365,1.302,0.1,1111122 
DISL,ioos:station:DISL:MHPA:1,2015-06-01T12:30:00Z,30.6671,-87.9365,1.347,0.1,1111122 
DISL,ioos:station:DISL:MHPA:1,2015-06-01T13:00:00Z,30.6671,-87.9365,1.383,0.1,1111122 
DISL,ioos:station:DISL:MHPA:1,2015-06-01T13:30:00Z,30.6671,-87.9365,1.439,0.1,1111122 
DISL,ioos:station:DISL:MHPA:1,2015-06-01T14:00:00Z,30.6671,-87.9365,1.456,0.09,1111122 
DISL,ioos:station:DISL:MHPA:1,2015-06-01T14:30:00Z,30.6671,-87.9365,1.473,0.1,1111122 
DISL,ioos:station:DISL:MHPA:1,2015-06-01T15:00:00Z,30.6671,-87.9365,1.497,0.1,1111122 
DISL,ioos:station:DISL:MHPA:1,2015-06-01T15:30:00Z,30.6671,-87.9365,1.496,0.1,1111122 
DISL,ioos:station:DISL:MHPA:1,2015-06-01T16:00:00Z,30.6671,-87.9365,1.493,0.1,1111122 
DISL,ioos:station:DISL:MHPA:1,2015-06-01T16:30:00Z,30.6671,-87.9365,1.499,0.1,1111122 
DISL,ioos:station:DISL:MHPA:1,2015-06-01T17:00:00Z,30.6671,-87.9365,1.494,0.1,1111122 
DISL,ioos:station:DISL:MHPA:1,2015-06-01T17:30:00Z,30.6671,-87.9365,1.455,0.09,1111122 
DISL,ioos:station:DISL:MHPA:1,2015-06-01T18:00:00Z,30.6671,-87.9365,1.44,0.1,1111122 
DISL,ioos:station:DISL:MHPA:1,2015-06-01T18:30:00Z,30.6671,-87.9365,1.417,0.1,1111122 
DISL,ioos:station:DISL:MHPA:1,2015-06-01T19:00:00Z,30.6671,-87.9365,1.383,0.09,1111122 
DISL,ioos:station:DISL:MHPA:1,2015-06-01T19:30:00Z,30.6671,-87.9365,1.348,0.1,1111122 
DISL,ioos:station:DISL:MHPA:1,2015-06-01T20:00:00Z,30.6671,-87.9365,1.309,0.1,1111122 
DISL,ioos:station:DISL:MHPA:1,2015-06-01T20:30:00Z,30.6671,-87.9365,1.295,0.1,1111122 
DISL,ioos:station:DISL:MHPA:1,2015-06-01T21:00:00Z,30.6671,-87.9365,1.229,0.1,1111122 
DISL,ioos:station:DISL:MHPA:1,2015-06-01T21:30:00Z,30.6671,-87.9365,1.197,0.1,1111122 
DISL,ioos:station:DISL:MHPA:1,2015-06-01T22:00:00Z,30.6671,-87.9365,1.16,0.1,1111122 
DISL,ioos:station:DISL:MHPA:1,2015-06-01T22:30:00Z,30.6671,-87.9365,1.125,0.1,1111122 
DISL,ioos:station:DISL:MHPA:1,2015-06-01T23:00:00Z,30.6671,-87.9365,1.081,0.09,1111122 
DISL,ioos:station:DISL:MHPA:1,2015-06-01T23:30:00Z,30.6671,-87.9365,1.045,0.09,1111122 
DISL,ioos:station:DISL:MHPA:1,2015-06-02T00:00:00Z,30.6671,-87.9365,1.014,0.09,1111122 
DISL,ioos:station:DISL:MHPA:1,2015-06-02T00:30:00Z,30.6671,-87.9365,0.997,0.1,1111122 
DISL,ioos:station:DISL:MHPA:1,2015-06-02T01:00:00Z,30.6671,-87.9365,0.97,0.1,1111122 
DISL,ioos:station:DISL:MHPA:1,2015-06-02T01:30:00Z,30.6671,-87.9365,0.948,0.1,1111122 
DISL,ioos:station:DISL:MHPA:1,2015-06-02T02:00:00Z,30.6671,-87.9365,0.935,0.1,1111122 
DISL,ioos:station:DISL:MHPA:1,2015-06-02T02:30:00Z,30.6671,-87.9365,0.917,0.1,1111122 
DISL,ioos:station:DISL:MHPA:1,2015-06-02T03:00:00Z,30.6671,-87.9365,0.904,0.1,1111122 
DISL,ioos:station:DISL:MHPA:1,2015-06-02T03:30:00Z,30.6671,-87.9365,0.9,0.1,1111122 
DISL,ioos:station:DISL:MHPA:1,2015-06-02T04:00:00Z,30.6671,-87.9365,0.888,0.1,1111122 
DISL,ioos:station:DISL:MHPA:1,2015-06-02T04:30:00Z,30.6671,-87.9365,0.881,0.1,1111122 
DISL,ioos:station:DISL:MHPA:1,2015-06-02T05:00:00Z,30.6671,-87.9365,0.903,0.1,1111122 
DISL,ioos:station:DISL:MHPA:1,2015-06-02T05:30:00Z,30.6671,-87.9365,0.934,0.1,1111122 
DISL,ioos:station:DISL:MHPA:1,2015-06-02T06:00:00Z,30.6671,-87.9365,0.964,0.09,1111122 
DISL,ioos:station:DISL:MHPA:1,2015-06-02T06:30:00Z,30.6671,-87.9365,1.003,0.1,1111122 
DISL,ioos:station:DISL:MHPA:1,2015-06-02T07:00:00Z,30.6671,-87.9365,1.046,0.1,1111122 
DISL,ioos:station:DISL:MHPA:1,2015-06-02T07:30:00Z,30.6671,-87.9365,1.092,0.1,1111122 
DISL,ioos:station:DISL:MHPA:1,2015-06-02T08:00:00Z,30.6671,-87.9365,1.147,0.1,1111122 
DISL,ioos:station:DISL:MHPA:1,2015-06-02T08:30:00Z,30.6671,-87.9365,1.163,0.1,1111122 
DISL,ioos:station:DISL:MHPA:1,2015-06-02T09:00:00Z,30.6671,-87.9365,1.185,0.1,1111122 
DISL,ioos:station:DISL:MHPA:1,2015-06-02T09:30:00Z,30.6671,-87.9365,1.209,0.1,1111122 
DISL,ioos:station:DISL:MHPA:1,2015-06-02T10:00:00Z,30.6671,-87.9365,1.237,0.1,1111122 
DISL,ioos:station:DISL:MHPA:1,2015-06-02T10:30:00Z,30.6671,-87.9365,1.27,0.1,1111122 
DISL,ioos:station:DISL:MHPA:1,2015-06-02T11:00:00Z,30.6671,-87.9365,1.279,0.1,1111122 
DISL,ioos:station:DISL:MHPA:1,2015-06-02T11:30:00Z,30.6671,-87.9365,1.332,0.09,1111122 
DISL,ioos:station:DISL:MHPA:1,2015-06-02T12:00:00Z,30.6671,-87.9365,1.393,0.09,1111122 
DISL,ioos:station:DISL:MHPA:1,2015-06-02T12:30:00Z,30.6671,-87.9365,1.309,0.1,1111122 
DISL,ioos:station:DISL:MHPA:1,2015-06-02T13:00:00Z,30.6671,-87.9365,1.324,0.09,1111122 
DISL,ioos:station:DISL:MHPA:1,2015-06-02T13:30:00Z,30.6671,-87.9365,1.36,0.09,1111122 
DISL,ioos:station:DISL:MHPA:1,2015-06-02T14:00:00Z,30.6671,-87.9365,1.373,0.09,1111122 
DISL,ioos:station:DISL:MHPA:1,2015-06-02T14:30:00Z,30.6671,-87.9365,1.411,0.1,1111122 
DISL,ioos:station:DISL:MHPA:1,2015-06-02T15:00:00Z,30.6671,-87.9365,1.423,0.1,1111122 
DISL,ioos:station:DISL:MHPA:1,2015-06-02T15:30:00Z,30.6671,-87.9365,1.412,0.1,1111122 
DISL,ioos:station:DISL:MHPA:1,2015-06-02T16:00:00Z,30.6671,-87.9365,1.444,0.09,1111122 
DISL,ioos:station:DISL:MHPA:1,2015-06-02T16:30:00Z,30.6671,-87.9365,1.467,0.09,1111122 
DISL,ioos:station:DISL:MHPA:1,2015-06-02T17:00:00Z,30.6671,-87.9365,1.457,0.09,1111122 
DISL,ioos:station:DISL:MHPA:1,2015-06-02T17:30:00Z,30.6671,-87.9365,1.445,0.1,1111122 
DISL,ioos:station:DISL:MHPA:1,2015-06-02T18:00:00Z,30.6671,-87.9365,1.441,0.09,1111122 
DISL,ioos:station:DISL:MHPA:1,2015-06-02T18:30:00Z,30.6671,-87.9365,1.434,0.09,1111122 
DISL,ioos:station:DISL:MHPA:1,2015-06-02T19:00:00Z,30.6671,-87.9365,1.402,0.09,1111122 
DISL,ioos:station:DISL:MHPA:1,2015-06-02T19:30:00Z,30.6671,-87.9365,1.383,0.09,1111122 
DISL,ioos:station:DISL:MHPA:1,2015-06-02T20:00:00Z,30.6671,-87.9365,1.357,0.09,1111122 
DISL,ioos:station:DISL:MHPA:1,2015-06-02T20:30:00Z,30.6671,-87.9365,1.325,0.1,1111122 
DISL,ioos:station:DISL:MHPA:1,2015-06-02T21:00:00Z,30.6671,-87.9365,1.285,0.1,1111122 
DISL,ioos:station:DISL:MHPA:1,2015-06-02T21:30:00Z,30.6671,-87.9365,1.246,0.1,1111122 
DISL,ioos:station:DISL:MHPA:1,2015-06-02T22:00:00Z,30.6671,-87.9365,1.212,0.1,1111122 
DISL,ioos:station:DISL:MHPA:1,2015-06-02T22:30:00Z,30.6671,-87.9365,1.175,0.1,1111122 
DISL,ioos:station:DISL:MHPA:1,2015-06-02T23:00:00Z,30.6671,-87.9365,1.144,0.1,1111122 
DISL,ioos:station:DISL:MHPA:1,2015-06-02T23:30:00Z,30.6671,-87.9365,1.119,0.09,1111122 
DISL,ioos:station:DISL:MHPA:1,2015-06-03T00:00:00Z,30.6671,-87.9365,1.101,0.09,1111122 
DISL,ioos:station:DISL:MHPA:1,2015-06-03T00:30:00Z,30.6671,-87.9365,1.085,0.09,1111122 
DISL,ioos:station:DISL:MHPA:1,2015-06-03T01:00:00Z,30.6671,-87.9365,1.058,0.09,1111122 
DISL,ioos:station:DISL:MHPA:1,2015-06-03T01:30:00Z,30.6671,-87.9365,1.023,0.09,1111122 
DISL,ioos:station:DISL:MHPA:1,2015-06-03T02:00:00Z,30.6671,-87.9365,0.991,0.09,1111122 
DISL,ioos:station:DISL:MHPA:1,2015-06-03T02:30:00Z,30.6671,-87.9365,0.96,0.09,1111122 
DISL,ioos:station:DISL:MHPA:1,2015-06-03T03:00:00Z,30.6671,-87.9365,0.934,0.09,1111122 
DISL,ioos:station:DISL:MHPA:1,2015-06-03T03:30:00Z,30.6671,-87.9365,0.915,0.09,1111122 
DISL,ioos:station:DISL:MHPA:1,2015-06-03T04:00:00Z,30.6671,-87.9365,0.899,0.09,1111122 
DISL,ioos:station:DISL:MHPA:1,2015-06-03T04:30:00Z,30.6671,-87.9365,0.895,0.09,1111122 
DISL,ioos:station:DISL:MHPA:1,2015-06-03T05:00:00Z,30.6671,-87.9365,0.897,0.09,1111122 
DISL,ioos:station:DISL:MHPA:1,2015-06-03T05:30:00Z,30.6671,-87.9365,0.91,0.09,1111122 
DISL,ioos:station:DISL:MHPA:1,2015-06-03T06:00:00Z,30.6671,-87.9365,0.938,0.09,1111122 
DISL,ioos:station:DISL:MHPA:1,2015-06-03T06:30:00Z,30.6671,-87.9365,0.967,0.09,1111122 
DISL,ioos:station:DISL:MHPA:1,2015-06-03T07:00:00Z,30.6671,-87.9365,0.989,0.1,1111122 
DISL,ioos:station:DISL:MHPA:1,2015-06-03T07:30:00Z,30.6671,-87.9365,1.016,0.09,1111122 
DISL,ioos:station:DISL:MHPA:1,2015-06-03T08:00:00Z,30.6671,-87.9365,1.026,0.1,1111122 
DISL,ioos:station:DISL:MHPA:1,2015-06-03T08:30:00Z,30.6671,-87.9365,1.047,0.09,1111122 
DISL,ioos:station:DISL:MHPA:1,2015-06-03T09:00:00Z,30.6671,-87.9365,1.068,0.1,1111122 
DISL,ioos:station:DISL:MHPA:1,2015-06-03T09:30:00Z,30.6671,-87.9365,1.096,0.1,1111122 
DISL,ioos:station:DISL:MHPA:1,2015-06-03T10:00:00Z,30.6671,-87.9365,1.132,0.1,1111122 
DISL,ioos:station:DISL:MHPA:1,2015-06-03T10:30:00Z,30.6671,-87.9365,1.138,0.1,1111122 
DISL,ioos:station:DISL:MHPA:1,2015-06-03T11:00:00Z,30.6671,-87.9365,1.162,0.1,1111122 
DISL,ioos:station:DISL:MHPA:1,2015-06-03T11:30:00Z,30.6671,-87.9365,1.192,0.1,1111122 
DISL,ioos:station:DISL:MHPA:1,2015-06-03T12:00:00Z,30.6671,-87.9365,1.208,0.1,1111122 
DISL,ioos:station:DISL:MHPA:1,2015-06-03T12:30:00Z,30.6671,-87.9365,1.238,0.1,1111122 
DISL,ioos:station:DISL:MHPA:1,2015-06-03T13:00:00Z,30.6671,-87.9365,1.259,0.1,1111122 
DISL,ioos:station:DISL:MHPA:1,2015-06-03T13:30:00Z,30.6671,-87.9365,1.29,0.1,1111122 
DISL,ioos:station:DISL:MHPA:1,2015-06-03T14:00:00Z,30.6671,-87.9365,1.326,0.09,1111122 
DISL,ioos:station:DISL:MHPA:1,2015-06-03T14:30:00Z,30.6671,-87.9365,1.381,0.09,1111122 
DISL,ioos:station:DISL:MHPA:1,2015-06-03T15:00:00Z,30.6671,-87.9365,1.405,0.09,1111122 
DISL,ioos:station:DISL:MHPA:1,2015-06-03T15:30:00Z,30.6671,-87.9365,1.439,0.1,1111122 
DISL,ioos:station:DISL:MHPA:1,2015-06-03T16:00:00Z,30.6671,-87.9365,1.468,0.09,1111122 
DISL,ioos:station:DISL:MHPA:1,2015-06-03T16:30:00Z,30.6671,-87.9365,1.492,0.09,1111122 
DISL,ioos:station:DISL:MHPA:1,2015-06-03T17:00:00Z,30.6671,-87.9365,1.519,0.09,1111122 
DISL,ioos:station:DISL:MHPA:1,2015-06-03T17:30:00Z,30.6671,-87.9365,1.531,0.09,1111122 
DISL,ioos:station:DISL:MHPA:1,2015-06-03T18:00:00Z,30.6671,-87.9365,1.528,0.09,1111122 
DISL,ioos:station:DISL:MHPA:1,2015-06-03T18:30:00Z,30.6671,-87.9365,1.528,0.09,1111122 
DISL,ioos:station:DISL:MHPA:1,2015-06-03T19:00:00Z,30.6671,-87.9365,1.515,0.1,1111122 
DISL,ioos:station:DISL:MHPA:1,2015-06-03T19:30:00Z,30.6671,-87.9365,1.493,0.1,1111122 
DISL,ioos:station:DISL:MHPA:1,2015-06-03T20:00:00Z,30.6671,-87.9365,1.469,0.09,1111122 
DISL,ioos:station:DISL:MHPA:1,2015-06-03T20:30:00Z,30.6671,-87.9365,1.432,0.09,1111122 
DISL,ioos:station:DISL:MHPA:1,2015-06-03T21:00:00Z,30.6671,-87.9365,1.395,0.09,1111122 
DISL,ioos:station:DISL:MHPA:1,2015-06-03T21:30:00Z,30.6671,-87.9365,1.356,0.09,1111122 
DISL,ioos:station:DISL:MHPA:1,2015-06-03T22:00:00Z,30.6671,-87.9365,1.319,0.09,1111122 
DISL,ioos:station:DISL:MHPA:1,2015-06-03T22:30:00Z,30.6671,-87.9365,1.29,0.09,1111122 
DISL,ioos:station:DISL:MHPA:1,2015-06-03T23:00:00Z,30.6671,-87.9365,1.262,0.1,1111122 
DISL,ioos:station:DISL:MHPA:1,2015-06-03T23:30:00Z,30.6671,-87.9365,1.223,0.09,1111122 
DISL,ioos:station:DISL:MHPA:1,2015-06-04T00:00:00Z,30.6671,-87.9365,1.18,0.1,1111122 
DISL,ioos:station:DISL:MHPA:1,2015-06-04T00:30:00Z,30.6671,-87.9365,1.142,0.09,1111122 
DISL,ioos:station:DISL:MHPA:1,2015-06-04T01:00:00Z,30.6671,-87.9365,1.105,0.09,1111122 
DISL,ioos:station:DISL:MHPA:1,2015-06-04T01:30:00Z,30.6671,-87.9365,1.075,0.09,1111122 
DISL,ioos:station:DISL:MHPA:1,2015-06-04T02:00:00Z,30.6671,-87.9365,1.027,0.09,1111122 
DISL,ioos:station:DISL:MHPA:1,2015-06-04T02:30:00Z,30.6671,-87.9365,0.995,0.09,1111122 
DISL,ioos:station:DISL:MHPA:1,2015-06-04T03:00:00Z,30.6671,-87.9365,0.965,0.09,1111122 
DISL,ioos:station:DISL:MHPA:1,2015-06-04T03:30:00Z,30.6671,-87.9365,0.938,0.09,1111122 
DISL,ioos:station:DISL:MHPA:1,2015-06-04T04:00:00Z,30.6671,-87.9365,0.918,0.09,1111122 
DISL,ioos:station:DISL:MHPA:1,2015-06-04T04:30:00Z,30.6671,-87.9365,0.903,0.09,1111122 
DISL,ioos:station:DISL:MHPA:1,2015-06-04T05:00:00Z,30.6671,-87.9365,0.89,0.09,1111122 
DISL,ioos:station:DISL:MHPA:1,2015-06-04T05:30:00Z,30.6671,-87.9365,0.87,0.09,1111122 
DISL,ioos:station:DISL:MHPA:1,2015-06-04T06:00:00Z,30.6671,-87.9365,0.845,0.09,1111122 
DISL,ioos:station:DISL:MHPA:1,2015-06-04T06:30:00Z,30.6671,-87.9365,0.852,0.09,1111122 
DISL,ioos:station:DISL:MHPA:1,2015-06-04T07:00:00Z,30.6671,-87.9365,0.868,0.09,1111122 
DISL,ioos:station:DISL:MHPA:1,2015-06-04T07:30:00Z,30.6671,-87.9365,0.896,0.09,1111122 
DISL,ioos:station:DISL:MHPA:1,2015-06-04T08:00:00Z,30.6671,-87.9365,0.931,0.09,1111122 
DISL,ioos:station:DISL:MHPA:1,2015-06-04T08:30:00Z,30.6671,-87.9365,0.979,0.09,1111122 
DISL,ioos:station:DISL:MHPA:1,2015-06-04T09:00:00Z,30.6671,-87.9365,1.018,0.09,1111122 
DISL,ioos:station:DISL:MHPA:1,2015-06-04T09:30:00Z,30.6671,-87.9365,1.059,0.09,1111122 
DISL,ioos:station:DISL:MHPA:1,2015-06-04T10:00:00Z,30.6671,-87.9365,1.095,0.09,1111122 
DISL,ioos:station:DISL:MHPA:1,2015-06-04T10:30:00Z,30.6671,-87.9365,1.135,0.09,1111122 
DISL,ioos:station:DISL:MHPA:1,2015-06-04T11:00:00Z,30.6671,-87.9365,1.173,0.09,1111122 
DISL,ioos:station:DISL:MHPA:1,2015-06-04T11:30:00Z,30.6671,-87.9365,1.206,0.09,1111122 
DISL,ioos:station:DISL:MHPA:1,2015-06-04T12:00:00Z,30.6671,-87.9365,1.238,0.1,1111122 
DISL,ioos:station:DISL:MHPA:1,2015-06-04T12:30:00Z,30.6671,-87.9365,1.25,0.09,1111122 
DISL,ioos:station:DISL:MHPA:1,2015-06-04T13:00:00Z,30.6671,-87.9365,1.269,0.09,1111122 
DISL,ioos:station:DISL:MHPA:1,2015-06-04T13:30:00Z,30.6671,-87.9365,1.293,0.1,1111122 
DISL,ioos:station:DISL:MHPA:1,2015-06-04T14:00:00Z,30.6671,-87.9365,1.318,0.09,1111122 
DISL,ioos:station:DISL:MHPA:1,2015-06-04T14:30:00Z,30.6671,-87.9365,1.358,0.09,1111122 
DISL,ioos:station:DISL:MHPA:1,2015-06-04T15:00:00Z,30.6671,-87.9365,1.403,0.09,1111122 
DISL,ioos:station:DISL:MHPA:1,2015-06-04T15:30:00Z,30.6671,-87.9365,1.439,0.09,1111122 
DISL,ioos:station:DISL:MHPA:1,2015-06-04T16:00:00Z,30.6671,-87.9365,1.472,0.09,1111122 
DISL,ioos:station:DISL:MHPA:1,2015-06-04T16:30:00Z,30.6671,-87.9365,1.502,0.09,1111122 
DISL,ioos:station:DISL:MHPA:1,2015-06-04T17:00:00Z,30.6671,-87.9365,1.531,0.09,1111122 
DISL,ioos:station:DISL:MHPA:1,2015-06-04T17:30:00Z,30.6671,-87.9365,1.54,0.09,1111122 
DISL,ioos:station:DISL:MHPA:1,2015-06-04T18:00:00Z,30.6671,-87.9365,1.542,0.09,1111122 
DISL,ioos:station:DISL:MHPA:1,2015-06-04T18:30:00Z,30.6671,-87.9365,1.531,0.09,1111122 
DISL,ioos:station:DISL:MHPA:1,2015-06-04T19:00:00Z,30.6671,-87.9365,1.513,0.09,1111122 
DISL,ioos:station:DISL:MHPA:1,2015-06-04T19:30:00Z,30.6671,-87.9365,1.496,0.09,1111122 
DISL,ioos:station:DISL:MHPA:1,2015-06-04T20:00:00Z,30.6671,-87.9365,1.471,0.09,1111122 
DISL,ioos:station:DISL:MHPA:1,2015-06-04T20:30:00Z,30.6671,-87.9365,1.441,0.09,1111122 
DISL,ioos:station:DISL:MHPA:1,2015-06-04T21:00:00Z,30.6671,-87.9365,1.404,0.09,1111122 
DISL,ioos:station:DISL:MHPA:1,2015-06-04T21:30:00Z,30.6671,-87.9365,1.369,0.09,1111122 
DISL,ioos:station:DISL:MHPA:1,2015-06-04T22:00:00Z,30.6671,-87.9365,1.334,0.09,1111122 
DISL,ioos:station:DISL:MHPA:1,2015-06-04T22:30:00Z,30.6671,-87.9365,1.29,0.09,1111122 
DISL,ioos:station:DISL:MHPA:1,2015-06-04T23:00:00Z,30.6671,-87.9365,1.249,0.09,1111122 
DISL,ioos:station:DISL:MHPA:1,2015-06-04T23:30:00Z,30.6671,-87.9365,1.209,0.09,1111122 
DISL,ioos:station:DISL:MHPA:1,2015-06-05T00:00:00Z,30.6671,-87.9365,1.166,0.09,1111122 
DISL,ioos:station:DISL:MHPA:1,2015-06-05T00:30:00Z,30.6671,-87.9365,1.125,0.09,1111122 
DISL,ioos:station:DISL:MHPA:1,2015-06-05T01:00:00Z,30.6671,-87.9365,1.086,0.09,1111122 
DISL,ioos:station:DISL:MHPA:1,2015-06-05T01:30:00Z,30.6671,-87.9365,1.047,0.09,1111122 
DISL,ioos:station:DISL:MHPA:1,2015-06-05T02:00:00Z,30.6671,-87.9365,1.008,0.09,1111122 
DISL,ioos:station:DISL:MHPA:1,2015-06-05T02:30:00Z,30.6671,-87.9365,0.975,0.09,1111122 
DISL,ioos:station:DISL:MHPA:1,2015-06-05T03:00:00Z,30.6671,-87.9365,0.95,0.09,1111122 
DISL,ioos:station:DISL:MHPA:1,2015-06-05T03:30:00Z,30.6671,-87.9365,0.916,0.09,1111122 
DISL,ioos:station:DISL:MHPA:1,2015-06-05T04:00:00Z,30.6671,-87.9365,0.89,0.09,1111122 
DISL,ioos:station:DISL:MHPA:1,2015-06-05T04:30:00Z,30.6671,-87.9365,0.866,0.09,1111122 
DISL,ioos:station:DISL:MHPA:1,2015-06-05T05:00:00Z,30.6671,-87.9365,0.849,0.09,1111122 
DISL,ioos:station:DISL:MHPA:1,2015-06-05T05:30:00Z,30.6671,-87.9365,0.835,0.09,1111122 
DISL,ioos:station:DISL:MHPA:1,2015-06-05T06:00:00Z,30.6671,-87.9365,0.834,0.09,1111122 
DISL,ioos:station:DISL:MHPA:1,2015-06-05T06:30:00Z,30.6671,-87.9365,0.839,0.09,1111122 
DISL,ioos:station:DISL:MHPA:1,2015-06-05T07:00:00Z,30.6671,-87.9365,0.855,0.09,1111122 
DISL,ioos:station:DISL:MHPA:1,2015-06-05T07:30:00Z,30.6671,-87.9365,0.872,0.09,1111122 
DISL,ioos:station:DISL:MHPA:1,2015-06-05T08:00:00Z,30.6671,-87.9365,0.886,0.09,1111122 
DISL,ioos:station:DISL:MHPA:1,2015-06-05T08:30:00Z,30.6671,-87.9365,0.915,0.09,1111122 
DISL,ioos:station:DISL:MHPA:1,2015-06-05T09:00:00Z,30.6671,-87.9365,0.944,0.09,1111122 
DISL,ioos:station:DISL:MHPA:1,2015-06-05T09:30:00Z,30.6671,-87.9365,0.981,0.09,1111122 
DISL,ioos:station:DISL:MHPA:1,2015-06-05T10:00:00Z,30.6671,-87.9365,1.044,0.09,1111122 
DISL,ioos:station:DISL:MHPA:1,2015-06-05T10:30:00Z,30.6671,-87.9365,1.086,0.09,1111122 
DISL,ioos:station:DISL:MHPA:1,2015-06-05T11:00:00Z,30.6671,-87.9365,1.123,0.1,1111122 
DISL,ioos:station:DISL:MHPA:1,2015-06-05T11:30:00Z,30.6671,-87.9365,1.169,0.09,1111122 
DISL,ioos:station:DISL:MHPA:1,2015-06-05T12:00:00Z,30.6671,-87.9365,1.195,0.09,1111122 
DISL,ioos:station:DISL:MHPA:1,2015-06-05T12:30:00Z,30.6671,-87.9365,1.216,0.09,1111122 
DISL,ioos:station:DISL:MHPA:1,2015-06-05T13:00:00Z,30.6671,-87.9365,1.222,0.1,1111122 
DISL,ioos:station:DISL:MHPA:1,2015-06-05T13:30:00Z,30.6671,-87.9365,1.232,0.1,1111122 
DISL,ioos:station:DISL:MHPA:1,2015-06-05T14:00:00Z,30.6671,-87.9365,1.249,0.1,1111122 
DISL,ioos:station:DISL:MHPA:1,2015-06-05T14:30:00Z,30.6671,-87.9365,1.266,0.09,1111122 
DISL,ioos:station:DISL:MHPA:1,2015-06-05T15:00:00Z,30.6671,-87.9365,1.284,0.09,1111122 
DISL,ioos:station:DISL:MHPA:1,2015-06-05T15:30:00Z,30.6671,-87.9365,1.303,0.09,1111122 
DISL,ioos:station:DISL:MHPA:1,2015-06-05T16:00:00Z,30.6671,-87.9365,1.331,0.08,1111122 
DISL,ioos:station:DISL:MHPA:1,2015-06-05T16:30:00Z,30.6671,-87.9365,1.351,0.09,1111122 
DISL,ioos:station:DISL:MHPA:1,2015-06-05T17:00:00Z,30.6671,-87.9365,1.368,0.09,1111122 
DISL,ioos:station:DISL:MHPA:1,2015-06-05T17:30:00Z,30.6671,-87.9365,1.39,0.09,1111122 
DISL,ioos:station:DISL:MHPA:1,2015-06-05T18:00:00Z,30.6671,-87.9365,1.402,0.09,1111122 
DISL,ioos:station:DISL:MHPA:1,2015-06-05T18:30:00Z,30.6671,-87.9365,1.411,0.09,1111122 
DISL,ioos:station:DISL:MHPA:1,2015-06-05T19:00:00Z,30.6671,-87.9365,1.418,0.09,1111122 
DISL,ioos:station:DISL:MHPA:1,2015-06-05T19:30:00Z,30.6671,-87.9365,1.42,0.09,1111122 
DISL,ioos:station:DISL:MHPA:1,2015-06-05T20:00:00Z,30.6671,-87.9365,1.416,0.09,1111122 
DISL,ioos:station:DISL:MHPA:1,2015-06-05T20:30:00Z,30.6671,-87.9365,1.401,0.09,1111122 
DISL,ioos:station:DISL:MHPA:1,2015-06-05T21:00:00Z,30.6671,-87.9365,1.372,0.09,1111122 
DISL,ioos:station:DISL:MHPA:1,2015-06-05T21:30:00Z,30.6671,-87.9365,1.349,0.09,1111122 
DISL,ioos:station:DISL:MHPA:1,2015-06-05T22:00:00Z,30.6671,-87.9365,1.321,0.09,1111122 
DISL,ioos:station:DISL:MHPA:1,2015-06-05T22:30:00Z,30.6671,-87.9365,1.287,0.09,1111122 
DISL,ioos:station:DISL:MHPA:1,2015-06-05T23:00:00Z,30.6671,-87.9365,1.245,0.09,1111122 
DISL,ioos:station:DISL:MHPA:1,2015-06-05T23:30:00Z,30.6671,-87.9365,1.202,0.09,1111122 
DISL,ioos:station:DISL:MHPA:1,2015-06-06T00:00:00Z,30.6671,-87.9365,1.161,0.09,1111122 
DISL,ioos:station:DISL:MHPA:1,2015-06-06T00:30:00Z,30.6671,-87.9365,1.122,0.09,1111122 
DISL,ioos:station:DISL:MHPA:1,2015-06-06T01:00:00Z,30.6671,-87.9365,1.084,0.09,1111122 
DISL,ioos:station:DISL:MHPA:1,2015-06-06T01:30:00Z,30.6671,-87.9365,1.047,0.09,1111122 
DISL,ioos:station:DISL:MHPA:1,2015-06-06T02:00:00Z,30.6671,-87.9365,1.014,0.09,1111122 
DISL,ioos:station:DISL:MHPA:1,2015-06-06T02:30:00Z,30.6671,-87.9365,0.985,0.09,1111122 
DISL,ioos:station:DISL:MHPA:1,2015-06-06T03:00:00Z,30.6671,-87.9365,0.958,0.09,1111122 
DISL,ioos:station:DISL:MHPA:1,2015-06-06T03:30:00Z,30.6671,-87.9365,0.933,0.09,1111122 
DISL,ioos:station:DISL:MHPA:1,2015-06-06T04:00:00Z,30.6671,-87.9365,0.91,0.09,1111122 
DISL,ioos:station:DISL:MHPA:1,2015-06-06T04:30:00Z,30.6671,-87.9365,0.889,0.09,1111122 
DISL,ioos:station:DISL:MHPA:1,2015-06-06T05:00:00Z,30.6671,-87.9365,0.868,0.09,1111122 
DISL,ioos:station:DISL:MHPA:1,2015-06-06T05:30:00Z,30.6671,-87.9365,0.847,0.09,1111122 
DISL,ioos:station:DISL:MHPA:1,2015-06-06T06:00:00Z,30.6671,-87.9365,0.832,0.09,1111122 
DISL,ioos:station:DISL:MHPA:1,2015-06-06T06:30:00Z,30.6671,-87.9365,0.82,0.09,1111122 
DISL,ioos:station:DISL:MHPA:1,2015-06-06T07:00:00Z,30.6671,-87.9365,0.812,0.09,1111122 
DISL,ioos:station:DISL:MHPA:1,2015-06-06T07:30:00Z,30.6671,-87.9365,0.809,0.09,1111122 
DISL,ioos:station:DISL:MHPA:1,2015-06-06T08:00:00Z,30.6671,-87.9365,0.819,0.09,1111122 
DISL,ioos:station:DISL:MHPA:1,2015-06-06T08:30:00Z,30.6671,-87.9365,0.835,0.09,1111122 
DISL,ioos:station:DISL:MHPA:1,2015-06-06T09:00:00Z,30.6671,-87.9365,0.853,0.09,1111122 
DISL,ioos:station:DISL:MHPA:1,2015-06-06T09:30:00Z,30.6671,-87.9365,0.879,0.09,1111122 
DISL,ioos:station:DISL:MHPA:1,2015-06-06T10:00:00Z,30.6671,-87.9365,0.915,0.09,1111122 
DISL,ioos:station:DISL:MHPA:1,2015-06-06T10:30:00Z,30.6671,-87.9365,0.942,0.09,1111122 
DISL,ioos:station:DISL:MHPA:1,2015-06-06T11:00:00Z,30.6671,-87.9365,0.976,0.09,1111122 
DISL,ioos:station:DISL:MHPA:1,2015-06-06T11:30:00Z,30.6671,-87.9365,1.015,0.09,1111122 
DISL,ioos:station:DISL:MHPA:1,2015-06-06T12:00:00Z,30.6671,-87.9365,1.047,0.09,1111122 
DISL,ioos:station:DISL:MHPA:1,2015-06-06T12:30:00Z,30.6671,-87.9365,1.071,0.09,1111122 
DISL,ioos:station:DISL:MHPA:1,2015-06-06T13:00:00Z,30.6671,-87.9365,1.099,0.09,1111122 
DISL,ioos:station:DISL:MHPA:1,2015-06-06T13:30:00Z,30.6671,-87.9365,1.129,0.09,1111122 
DISL,ioos:station:DISL:MHPA:1,2015-06-06T14:00:00Z,30.6671,-87.9365,1.153,0.09,1111122 
DISL,ioos:station:DISL:MHPA:1,2015-06-06T14:30:00Z,30.6671,-87.9365,1.18,0.09,1111122 
DISL,ioos:station:DISL:MHPA:1,2015-06-06T15:00:00Z,30.6671,-87.9365,1.211,0.09,1111122 
DISL,ioos:station:DISL:MHPA:1,2015-06-06T15:30:00Z,30.6671,-87.9365,1.24,0.09,1111122 
DISL,ioos:station:DISL:MHPA:1,2015-06-06T16:00:00Z,30.6671,-87.9365,1.264,0.09,1111122 